Simultaneous Nadir Overpasses (SNOs) Predictions

Prediction of SNOs between GOES-16 and METOP-B Satellite Orbit:

Table of predicted SNOs for the next 14.0 days since TLE Epoch: 3/30/2017
Index Date Time (GOES-16) GOES-16 Lat,Lon METOP-B Lat,Lon Distance(km) Time Diff (sec)
1 03/31/2017 15:28:43 -0.01, -89.51 0.04, -89.63 14.04 80
2 04/03/2017 03:27:04 0.00, -89.49 0.04, -89.23 28.54 80
3 04/04/2017 15:45:55 -0.00, -89.52 0.96, -93.79 487.60 80
4 04/05/2017 15:27:56 -0.00, -89.53 -0.15, -88.80 82.11 80
5 04/07/2017 03:46:56 0.00, -89.51 -0.89, -93.40 443.69 80
6 04/08/2017 03:23:37 0.00, -89.52 0.23, -88.40 126.23 80
7 04/09/2017 15:42:28 -0.00, -89.56 0.77, -92.97 388.88 80
8 04/10/2017 15:24:29 -0.01, -89.57 -0.35, -87.98 181.60 80
9 04/12/2017 03:43:29 0.00, -89.57 -0.68, -92.57 342.93 80
10 04/13/2017 03:20:09 0.00, -89.58 0.44, -87.58 227.54 80




NCC Satellite Simultaneous Nadir Overpasses (SNOs) Prediction Service
